Home   Weather   Cocoa Beach   Past weeks
Flag for USA

Past Weather in Cocoa Beach, Florida, USA — Yesterday and Last 2 Weeks

Now
83 °F

Clear.


Feels Like: 95 °F
Forecast: 88 / 79 °F
Wind: 3 mph from Southeast

Location: Cocoa / Patrick Air Force Base

Current Time: Jul 21, 2019 at 10:08:49 pm

Latest Report: Jul 21, 2019 at 8:56 pm


Visibility: 10 mi

Pressure: 30.07 "Hg

Humidity: 92%

Dew Point: 80 °F

Location of Cocoa BeachLocation

Past Weather in Cocoa Beach — Graph

°F

Cocoa Beach Temperature Yesterday

Maximum temperature yesterday: 87 °F (at 1:56 pm)
Minimum temperature yesterday: 79 °F (at 9:59 am)
Average temperature yesterday: 82 °F

High & Low Weather Summary for the Past Weeks

 TemperatureHumidityPressure
High93 °F (Jul 14, 2:56 pm)100% (Jul 6, 9:30 pm)30.16 "Hg (Jul 6, 9:30 pm)
Low75 °F (Jul 12, 4:56 am)59% (Jul 15, 10:56 am)29.89 "Hg (Jul 8, 6:56 pm)
Average82 °F89%30.06 "Hg
* Reported Jul 6 8:56 pm — Jul 21 8:56 pm, Cocoa Beach. Weather by CustomWeather, © 2019

Note: Actual official high and low records may vary slightly from our data, if they occured in-between our weather recording intervals... More about our weather records

Advertising

Cocoa Beach Weather History for the Previous 24 Hours

Scroll right to see more
 ConditionsComfort  
Time TempWeatherWind HumidityBarometerVisibility
8:56 pm
Sun, Jul 21
83 °FClear.3 mph92%30.07 "Hg10 mi
7:56 pm84 °FSunny.6 mph88%30.06 "Hg10 mi
6:56 pm84 °FSunny.9 mph85%30.06 "Hg10 mi
5:56 pm85 °FSunny.9 mph78%30.04 "Hg10 mi
4:56 pm86 °FPassing clouds.9 mph78%30.05 "Hg10 mi
3:56 pm87 °FPassing clouds.9 mph78%30.05 "Hg10 mi
2:56 pm88 °FScattered clouds.12 mph74%30.07 "Hg10 mi
1:56 pm89 °FBroken clouds.10 mph71%30.08 "Hg10 mi
12:58 pm90 °FScattered clouds.10 mph71%30.09 "Hg10 mi
11:56 am88 °FSunny.8 mph75%30.09 "Hg10 mi
10:56 am88 °FSunny.8 mph78%30.08 "Hg10 mi
9:56 am86 °FSunny.6 mph84%30.10 "Hg10 mi
8:56 am84 °FSunny.5 mph87%30.10 "Hg10 mi
7:56 am82 °FSunny.No wind96%30.08 "Hg10 mi
6:56 am80 °FSunny.No wind100%30.07 "Hg10 mi
5:56 am80 °FClear.No wind100%30.06 "Hg10 mi
4:56 am80 °FClear.3 mph100%30.05 "Hg10 mi
3:56 am81 °FClear.5 mph100%30.05 "Hg10 mi
2:56 am81 °FClear.5 mph98%30.05 "Hg10 mi
1:56 am81 °FClear.8 mph98%30.07 "Hg10 mi
12:56 am82 °FClear.8 mph99%30.07 "Hg10 mi
11:56 pm
Sat, Jul 20
82 °FClear.6 mph98%30.09 "Hg10 mi
10:56 pm82 °FClear.6 mph94%30.09 "Hg10 mi
Weather by CustomWeather, © 2019

See weather overview